Probability
0 0 0 0 0 0 0 0 0 0 0 0 0 0 0 0 0 0 0 0 0 0 0 0 0 0 0 0 0 0 0 0 0 0 0 0 0 0 0 0 0 0 0
0 0 0 0 0 0 0 0 0 0 0 0 0 0 0 0 0 0 0 0 0 0 0 0 0 0 0 0 0 0 0 0 0 0 0 0 0 0 0 0 0 0 0
0 0 0 0 0 0 0 0 0 0 0 0 0 0 0 0 0 0 0 0 0 0 0 0 0 0 0 0 0 0 0 0 0 0 0 0 0 0 0 0 0 0 0
0 0 0 0 0 0 0 0 0 0 0 0 0 0 0 0 0 0 0 0 0 0 0 0 0 0 0 0 0 0 0 0 0 0 0 0 0 0 0 0 0 0 0
0 0 0 0 0 0 0 0 0 0 0 0 0 0 0 0 0 0 0 0 0 0 0 0 0 0 0 0 0 0 0 0 0 0 0 0 0 0 0 0 0 0 0
0 0 0 0 0 0 0 0 0 0 0 0 0 0 0 0 0 0 0 0 0 0 0 0 0 0 0 0 0 0 0 0 0 0 0 0 0 0 0 0 0 0 0
0 0 0 0 0 0 0 0 0 0 0 0 0 0 0 0 0 0 0 0 0 0 0 0 0 0 0 0 0 0 0 0 0 0 0 0 0 0 0 0 0 0 0
0 0 0 0 0 0 0 0 0 0 0 0 0 0 0 0 0 0 0 0 0 0 0 0 0 0 0 0 0 0 0 0 0 0 0 0 0 0 0 0 0 0 0
0 0 0 0 0 0 0 0 0 0 0 0 0 0 0 0 0 0 0 0 0 0 0 0 0 0 0 0 0 0 0 0 0 0 0 0 0 0 0 0 0 0 0
0 0 0 0 0 0 0 0 0 0 0 0 0 0 0 0 0 0 0 0 0 0 0 0 0 0 0 0 0 0 0 0 0 0 0 0 0 0 0 0 0 0 0
0 0 0 0 0 0 0 0 0 0 0 0 0 0 0 0 0 0 0 0 0 0 0 0 0 0 0 0 0 0 0 0 0 0 0 0 0 0 0 0 0 0 0
0 0 0 0 0 0 0 0 0 0 0 0 0 0 0 0 0 0 0 0 0 0 0 0 0 0 0 0 0 0 0 0 0 0 0 0 0 0 0 0 0 0 0
0 0 0 0 0 0 0 0 0 0 0 0 0 0 0 0 0 0 0 0 0 0 0 0 0 0 0 0 0 0 0 0 0 0 0 0 0 0 0 0 0 0 0
0 0 0 0 0 0 0 0 0 0 0 0 0 0 0 0 0 0 0 0 0 0 0 0 0 0 0 0 0 0 0 0 0 0 0 0 0 0 0 0 0 0 0
0 0 0 0 0 0 0 0 0 0 0 0 0 0 0 0 0 0 0 0 0 0 0 0 0 0 0 0 0 0 0 0 0 0 0 0 0 0 0 0 0 0 0
0 0 0 0 0 0 0 0 0 0 0 0 0 0 0 0 0 0 0 0 0 0 0 0 0 0 0 0 0 0 0 0 0 0 0 0 0 0 0 0 0 0 0
0 0 0 0 0 0 0 0 0 0 0 0 0 0 0 0 0 0 0 0 0 0 0 0 0 0 0 0 0 0 0 0 0 0 0 0 0 0 0 0 0 0 0
0 0 0 0 0 0 0 0 0 0 0 0 0 0 0 0 0 0 0 0 0 0 0 0 0 0 0 0 0 0 0 0 0 0 0 0 0 0 0 0 0 0 0
0 0 0 0 0 0 0 0 0 0 0 0 0 0 0 0 0 0 0 0 0 0 0 0 0 0 0 0 0 0 0 0 0 0 0 0 0 0 0 0 0 0 0
0 0 0 0 0 0 0 0 0 0 0 0 0 0 0 0 0 0 0 0 0 0 0 0 0 0 0 0 0 0 0 0 0 0 0 0 0 0 0 0 0 0 0
0 0 0 0 0 0 0 0 0 0 0 0 0 0 0 0 0 0 0 0 0 0 0 0 0 0 0 0 0 0 0 0 0 0 0 0 0 0 0 0 0 0 0
0 0 0 0 0 0 0 0 0 0 0 0 0 0 0 0 0 0 0 0 0 0 0 0 0 0 0 0 0 0 0 0 0 0 0 0 0 0 0 0 0 0 0
0 0 0 0 0 0 0 0 0 0 0 0 0 0 0 0 0 0 0 0 0 0 0 0 0 0 0 0 0 0 0 0 0 0 0 0 0 0 0 0 0 0 0
0 0 0 0 0 0 0 0 0 0 0 0 0 0 0 0 0 0 0 0 0 0 0 0 0 0 0 0 0 0 0 0 0 0 0 0 0 0 0 0 0 0 0
0 0 0 0 0 0 0 0 0 0 0 0 0 0 0 0 0 0 0 0 0 0 0 0 0 0 0 0 0 0 0 0 0 0 0 0 0 0 0 0 0 0 0
0 0 0 0 0 0 0 0 0 0 0 0 0 0 0 0 0 0 0 0 0 0 0 0 0 0 0 0 0 0 0 0 0 0 0 0 0 0 0 0 0 0 0
Height
5796 5786 5776 5765 5754 5741 5728 5714 5699 5684 5669 5652 5634 5617 5598 5580 5562 5545 5528 5514 5500 5489 5478 5469 5461 5454 5448 5442 5437 5434 5431 5428 5427 5429 5434 5440 5445 5453 5465 5477 5491 5507 5527
5788 5778 5767 5756 5744 5731 5717 5702 5687 5671 5654 5636 5618 5599 5581 5564 5546 5530 5513 5498 5484 5473 5463 5454 5445 5438 5431 5426 5420 5417 5415 5413 5410 5411 5414 5421 5427 5433 5443 5453 5466 5483 5502
5780 5769 5758 5747 5734 5721 5706 5691 5675 5658 5640 5621 5603 5586 5569 5551 5534 5519 5502 5486 5471 5458 5446 5436 5427 5418 5411 5405 5401 5397 5396 5397 5395 5394 5396 5401 5408 5414 5423 5434 5446 5461 5477
5772 5761 5750 5738 5725 5711 5696 5680 5663 5645 5626 5607 5589 5571 5554 5538 5521 5504 5488 5473 5457 5443 5430 5417 5405 5394 5386 5380 5376 5374 5374 5376 5379 5379 5380 5384 5389 5397 5407 5416 5428 5441 5456
5764 5753 5742 5729 5716 5701 5685 5669 5651 5632 5613 5594 5575 5559 5541 5524 5508 5491 5476 5460 5445 5428 5411 5395 5380 5366 5357 5351 5348 5348 5350 5354 5359 5362 5365 5368 5373 5380 5389 5400 5411 5424 5438
5757 5746 5734 5721 5706 5691 5675 5658 5640 5621 5602 5583 5565 5548 5531 5514 5497 5481 5465 5449 5431 5412 5392 5371 5353 5338 5327 5321 5319 5322 5326 5331 5338 5344 5349 5354 5359 5365 5373 5384 5395 5407 5421
5750 5739 5726 5712 5697 5681 5665 5648 5630 5611 5593 5574 5556 5539 5521 5503 5485 5468 5451 5434 5415 5394 5371 5350 5331 5315 5303 5296 5294 5297 5303 5311 5319 5326 5333 5340 5346 5351 5359 5369 5380 5392 5405
5743 5732 5718 5704 5689 5673 5657 5640 5621 5603 5585 5566 5548 5530 5512 5494 5476 5458 5439 5419 5398 5376 5353 5333 5314 5298 5285 5277 5274 5277 5284 5293 5303 5311 5319 5326 5333 5339 5346 5355 5366 5378 5391
5737 5725 5711 5697 5681 5666 5649 5632 5614 5595 5577 5559 5541 5524 5506 5488 5469 5450 5430 5409 5387 5364 5343 5324 5306 5290 5277 5267 5263 5265 5272 5281 5290 5299 5307 5314 5321 5328 5335 5343 5354 5366 5379
5731 5718 5704 5689 5674 5658 5641 5624 5605 5587 5569 5551 5534 5517 5500 5481 5463 5444 5424 5403 5381 5359 5339 5321 5305 5290 5277 5267 5262 5262 5268 5275 5283 5291 5298 5305 5312 5318 5325 5333 5343 5354 5367
5724 5711 5697 5682 5667 5651 5634 5617 5599 5581 5563 5546 5529 5513 5495 5477 5459 5440 5420 5399 5377 5357 5338 5321 5306 5293 5283 5274 5269 5267 5270 5274 5280 5286 5292 5298 5304 5310 5317 5324 5333 5344 5357
5718 5704 5690 5675 5660 5645 5628 5611 5593 5575 5559 5542 5525 5509 5492 5475 5457 5438 5419 5398 5377 5357 5339 5323 5310 5299 5290 5283 5278 5275 5275 5277 5279 5284 5288 5293 5299 5304 5310 5317 5326 5336 5349
5711 5698 5684 5669 5654 5639 5623 5606 5588 5571 5554 5538 5522 5506 5490 5473 5456 5437 5418 5399 5379 5360 5342 5327 5314 5304 5297 5290 5285 5281 5280 5279 5280 5283 5286 5290 5294 5300 5305 5312 5319 5329 5341
5706 5693 5679 5664 5649 5634 5618 5601 5584 5567 5551 5536 5520 5504 5488 5472 5455 5437 5419 5401 5382 5364 5347 5331 5319 5309 5301 5295 5290 5286 5284 5282 5282 5283 5285 5288 5292 5296 5301 5307 5315 5324 5335
5701 5688 5674 5659 5644 5629 5613 5596 5580 5564 5549 5534 5518 5503 5487 5471 5455 5438 5421 5403 5386 5368 5352 5337 5324 5313 5305 5299 5293 5290 5286 5284 5283 5283 5284 5287 5290 5294 5298 5304 5311 5320 5330
5696 5683 5669 5654 5640 5624 5609 5593 5577 5562 5547 5532 5517 5501 5486 5471 5456 5440 5423 5407 5390 5373 5357 5342 5329 5318 5309 5302 5296 5292 5288 5286 5284 5283 5284 5286 5289 5292 5297 5302 5308 5316 5326
5692 5679 5665 5650 5636 5621 5606 5590 5575 5560 5545 5530 5515 5501 5486 5472 5457 5442 5427 5411 5395 5379 5363 5349 5335 5323 5313 5305 5298 5293 5290 5287 5285 5284 5285 5286 5288 5292 5295 5300 5306 5313 5322
5688 5675 5661 5647 5632 5618 5603 5588 5573 5558 5544 5529 5515 5501 5487 5473 5458 5444 5430 5415 5400 5385 5370 5355 5341 5329 5318 5309 5301 5296 5291 5288 5286 5285 5285 5287 5289 5291 5295 5299 5305 5312 5320
5684 5671 5657 5643 5629 5615 5600 5586 5572 5557 5543 5529 5515 5502 5488 5474 5460 5447 5433 5419 5405 5391 5377 5362 5349 5336 5324 5314 5305 5299 5294 5290 5288 5286 5286 5287 5289 5291 5295 5299 5305 5311 5319
5680 5667 5654 5640 5626 5612 5598 5585 5570 5556 5543 5529 5516 5503 5489 5475 5462 5449 5436 5422 5409 5396 5382 5368 5355 5343 5331 5320 5311 5303 5297 5293 5290 5288 5288 5289 5290 5292 5296 5300 5305 5312 5319
5676 5663 5650 5637 5624 5610 5597 5583 5569 5556 5542 5529 5517 5504 5490 5477 5464 5451 5438 5426 5413 5400 5387 5374 5362 5350 5338 5327 5317 5309 5302 5296 5293 5291 5290 5291 5292 5294 5298 5302 5307 5312 5319
5673 5660 5648 5635 5622 5608 5595 5582 5569 5555 5542 5529 5517 5505 5492 5479 5466 5454 5442 5430 5418 5406 5394 5383 5370 5358 5346 5335 5324 5315 5307 5301 5297 5295 5294 5294 5295 5297 5300 5304 5309 5314 5320
5669 5657 5645 5632 5619 5606 5593 5580 5567 5554 5541 5529 5517 5505 5493 5481 5469 5458 5446 5435 5423 5412 5401 5390 5378 5366 5355 5344 5333 5322 5314 5307 5302 5299 5298 5298 5298 5301 5303 5307 5311 5317 5322
5666 5654 5642 5630 5617 5605 5592 5579 5566 5553 5541 5529 5517 5505 5494 5483 5471 5461 5450 5439 5428 5418 5407 5395 5384 5373 5362 5352 5341 5331 5322 5315 5309 5304 5302 5302 5302 5304 5307 5311 5315 5319 5324
5663 5652 5640 5628 5616 5603 5591 5578 5565 5553 5541 5529 5517 5506 5495 5483 5472 5462 5452 5442 5431 5420 5410 5400 5390 5380 5369 5358 5348 5339 5330 5322 5315 5310 5307 5306 5307 5308 5311 5314 5318 5322 5326
5660 5649 5637 5626 5614 5601 5589 5577 5565 5552 5541 5529 5518 5508 5497 5486 5475 5464 5453 5442 5433 5423 5413 5403 5394 5384 5374 5365 5356 5347 5338 5330 5323 5318 5313 5311 5311 5312 5314 5317 5320 5324 5328
Wind_Speed
47 51 55 58 63 67 71 74 78 81 84 87 89 89 87 84 83 81 80 76 71 67 62 58 55 53 51 50 49 47 47 47 48 51 55 60 68 74 78 83 92 100 104
49 53 57 61 65 69 72 76 79 82 86 89 89 87 84 82 80 78 75 71 67 64 61 58 57 56 55 54 53 51 48 46 47 47 49 53 60 68 74 79 87 95 102
51 55 59 63 66 70 73 76 79 83 87 88 87 84 81 79 77 75 71 67 65 63 62 62 61 61 61 60 59 56 53 49 47 47 46 48 53 60 69 75 81 88 96
53 57 60 64 67 71 74 77 80 84 87 86 84 82 79 78 76 73 69 66 64 64 65 67 68 68 67 65 63 60 57 53 49 47 46 45 48 55 61 70 76 82 89
54 58 61 65 68 71 74 78 81 84 85 84 82 79 78 77 75 71 68 66 66 68 70 72 72 70 67 65 63 60 57 54 51 48 46 45 45 48 56 63 71 76 82
55 58 62 66 69 71 75 78 81 83 83 82 79 78 76 75 73 70 68 67 69 71 74 72 68 64 61 59 57 56 54 52 49 48 46 44 44 45 50 57 65 71 76
56 59 63 66 69 72 75 78 80 81 81 79 77 76 75 75 73 71 71 71 73 74 72 67 62 57 52 49 48 48 49 48 46 46 45 44 43 43 47 52 60 67 72
56 60 63 66 69 71 74 77 80 80 79 77 75 74 74 74 72 72 73 75 76 75 70 64 58 51 45 39 35 36 38 40 41 42 42 42 41 41 44 49 56 63 69
56 60 63 66 69 71 74 77 78 78 77 75 73 72 73 73 72 73 74 76 76 73 68 61 55 48 40 32 24 22 26 30 33 36 38 39 39 39 41 45 52 60 66
57 60 64 66 68 71 74 76 77 77 75 73 71 71 72 72 72 73 74 75 75 71 64 58 52 45 39 31 20 10 13 19 25 29 32 34 36 37 38 42 48 55 63
57 61 64 66 68 70 73 75 76 75 73 71 70 70 70 71 72 72 74 74 73 69 63 56 50 44 39 32 22 11 2 10 16 22 26 29 31 33 35 39 44 51 59
58 61 64 66 67 70 72 74 74 73 71 69 68 68 69 70 71 71 72 73 71 67 62 55 47 41 36 31 24 15 6 2 10 15 20 23 26 29 32 36 41 48 55
58 61 63 65 67 69 71 72 72 71 69 67 66 67 67 68 69 70 71 72 70 66 61 53 46 39 34 28 23 16 9 3 5 10 15 19 22 25 28 32 37 44 52
58 61 63 65 67 68 70 71 70 69 67 66 65 65 66 67 68 69 70 70 70 66 61 54 45 38 32 28 23 17 11 5 3 7 12 16 19 21 24 28 34 40 48
58 61 63 64 66 67 69 69 69 67 66 64 64 64 64 65 67 68 69 69 69 67 63 56 47 39 32 27 22 17 12 7 4 6 9 13 16 18 21 25 30 37 45
58 61 62 64 65 66 68 68 67 66 64 63 63 62 62 63 65 66 67 68 67 67 64 59 52 43 34 27 22 17 13 8 4 4 7 10 13 15 18 22 27 34 41
59 61 62 63 64 65 66 66 66 64 63 62 61 61 61 62 63 64 65 66 66 66 65 61 55 48 39 31 24 19 15 10 6 3 5 8 11 13 16 20 25 31 38
59 60 61 62 63 64 65 65 65 64 62 61 60 60 60 61 62 63 63 64 65 65 64 62 58 52 45 37 29 23 18 13 8 4 3 5 8 11 14 18 23 28 35
58 60 61 62 62 63 64 64 64 63 61 60 59 59 59 60 60 61 62 63 63 64 64 62 60 55 50 43 35 27 21 16 11 5 1 3 7 10 13 17 21 26 32
58 60 61 61 62 62 63 63 63 62 61 59 58 58 58 59 59 60 60 61 62 62 63 62 61 58 53 48 41 32 24 18 13 8 3 3 6 10 13 16 20 24 29
58 60 61 61 61 61 62 62 62 61 60 58 57 57 57 58 58 59 59 59 60 61 61 61 61 59 56 51 45 38 29 21 14 9 5 3 5 9 12 16 19 23 28
58 59 60 60 60 60 61 61 61 61 59 58 57 56 56 57 57 57 57 57 57 58 58 58 58 58 57 54 49 43 35 26 18 11 6 3 5 9 12 15 19 23 26
58 59 60 60 59 59 60 60 61 60 58 57 56 56 56 56 56 56 55 55 55 55 55 56 56 56 55 54 51 46 40 32 23 14 8 4 5 8 12 15 19 22 25
58 58 59 59 59 59 59 59 60 59 57 56 55 55 55 55 56 55 54 53 53 53 53 54 54 54 53 53 52 49 44 37 29 19 11 6 4 8 12 15 18 21 23
58 58 58 58 58 58 58 58 59 58 57 55 54 54 54 54 54 55 54 53 52 53 52 52 52 52 51 52 52 50 46 41 34 26 16 8 4 6 11 15 17 20 22
58 57 57 58 57 57 57 57 57 57 56 54 53 52 52 52 53 53 54 54 52 51 51 50 50 50 50 50 49 48 47 43 38 31 22 13 5 4 9 13 16 19 21
Wind_Direction
323 324 326 327 328 328 327 327 327 326 324 323 322 322 322 322 321 321 320 318 316 314 311 307 304 300 296 293 290 287 283 278 270 260 249 243 239 235 231 227 224 220 218
326 328 329 330 330 329 329 328 327 326 325 324 324 325 325 325 324 324 323 320 317 314 311 307 302 298 294 290 287 285 282 279 274 266 255 245 239 235 231 228 225 221 218
329 331 332 332 331 331 330 329 328 327 327 327 327 328 327 327 327 326 324 322 318 315 311 307 302 297 292 287 283 280 277 275 272 268 260 249 239 235 231 228 225 222 219
332 333 333 333 332 331 331 330 330 329 329 329 330 330 330 330 330 329 327 325 321 317 313 309 303 297 291 286 281 276 272 269 266 264 262 254 243 234 230 228 225 223 220
334 334 334 333 333 332 332 332 331 331 331 331 332 332 333 333 332 331 330 327 324 320 316 311 305 299 292 286 279 274 269 265 260 257 257 255 248 237 229 227 225 223 221
335 335 335 334 334 334 333 333 333 333 333 333 334 335 335 335 335 334 332 330 327 324 320 316 311 304 296 287 278 270 265 260 256 252 251 251 249 241 230 224 223 222 220
335 336 335 335 335 335 335 335 334 335 335 336 336 337 338 338 338 337 336 335 333 330 328 326 321 315 305 292 280 268 260 255 251 248 246 245 245 241 232 223 220 221 219
336 337 337 337 337 336 336 336 336 336 337 338 339 339 340 341 341 341 341 340 339 338 337 337 334 330 322 307 288 270 256 249 246 243 241 241 241 239 233 224 218 217 218
337 338 338 338 338 338 338 338 338 338 339 340 341 342 343 344 345 345 345 345 344 345 345 345 345 344 340 330 309 276 252 242 239 238 237 237 237 236 232 225 218 215 215
338 339 339 339 339 339 339 339 340 340 341 342 343 344 346 347 348 348 349 349 350 350 351 352 354 357 358 357 347 309 249 235 233 233 234 234 234 234 230 225 218 214 213
339 340 341 341 341 341 341 341 342 342 343 344 345 347 349 350 351 352 353 354 354 355 355 357 360 4 9 13 14 12 268 229 229 229 231 232 232 232 229 224 218 213 211
341 342 342 342 342 342 342 343 343 344 345 346 347 349 351 353 354 355 356 358 358 359 360 0 3 7 13 18 23 27 28 249 229 227 228 230 230 230 227 223 218 212 209
342 343 343 343 343 344 344 344 345 346 347 348 349 351 353 355 356 358 359 1 2 2 3 3 4 7 11 16 20 24 23 357 238 226 226 228 229 228 225 221 217 212 207
343 344 344 344 345 345 345 346 347 348 348 350 351 353 354 357 359 0 2 3 5 6 6 6 5 5 7 10 13 15 11 354 275 233 229 227 226 226 223 219 215 210 206
344 345 345 345 346 346 347 348 348 349 350 351 353 355 356 358 0 2 4 5 7 8 9 10 8 7 5 5 7 9 6 355 306 251 233 226 224 223 220 216 212 208 205
345 346 346 346 347 347 348 349 350 350 351 353 355 356 358 360 2 4 5 7 8 10 11 11 12 10 8 6 5 6 4 356 324 261 233 225 221 218 215 211 208 205 203
345 346 347 347 348 349 349 350 351 352 353 354 356 358 359 1 3 5 6 8 9 11 13 13 13 13 12 9 8 7 3 357 343 292 239 225 217 211 207 204 202 201 200
346 347 347 348 349 350 350 351 352 353 354 356 357 359 0 2 4 5 7 9 10 12 13 15 15 15 15 13 10 7 7 4 358 337 264 223 209 202 199 197 195 195 197
346 347 348 349 350 351 351 352 353 354 355 357 358 359 1 3 5 6 7 9 11 12 14 15 16 17 17 16 14 11 10 10 9 5 336 198 192 189 189 188 188 190 192
346 347 349 350 351 351 352 353 354 355 356 357 359 360 2 4 5 6 7 9 11 12 14 15 16 17 18 18 17 15 13 13 15 18 34 166 179 180 180 181 182 185 188
346 347 349 350 351 352 352 353 354 356 357 358 359 0 2 4 5 6 8 9 10 12 13 15 16 17 18 19 19 19 18 17 17 22 39 113 159 170 173 174 176 180 183
346 347 349 350 351 352 353 354 355 356 357 358 359 1 3 4 6 6 8 9 10 12 13 14 16 18 19 19 20 21 21 21 21 25 39 90 144 160 165 168 171 174 177
346 347 348 350 351 352 353 354 355 356 357 358 359 1 2 4 6 7 7 9 10 11 12 14 16 17 19 20 21 22 23 23 23 27 35 69 136 158 164 165 167 171 174
346 347 348 349 350 352 353 354 355 356 357 358 359 0 1 3 5 6 7 8 9 11 12 14 15 17 18 20 22 23 24 24 25 27 33 53 120 156 164 166 166 169 172
345 346 348 349 350 351 352 353 354 355 357 358 359 0 1 2 3 4 6 7 8 10 11 13 14 16 18 19 21 23 24 25 27 28 31 43 91 150 166 169 170 170 172
345 346 347 348 350 351 352 353 354 355 356 357 358 360 1 2 3 4 4 5 7 9 10 11 13 15 16 18 20 22 23 25 26 28 30 35 57 139 169 175 176 175 175